Weather History for Victoria, BC

Change the Weather History Date:

Friday, October 25, 2013

  Actual Average Record
Temperature  
Mean Temperature 48 °F -  
Max Temperature 51 °F 50 °F 59 °F (2000)
Min Temperature 44 °F 37 °F 35 °F (2007)
Degree Days  
Heating Degree Days 18    
Moisture  
Dew Point 48 °F    
Average Humidity 98    
Maximum Humidity 100    
Minimum Humidity 92    
Precipitation  
Precipitation 0.00 in 0.17 in - ()
Sea Level Pressure  
Sea Level Pressure 30.25 in    
Wind  
Wind Speed 2 mph ()    
Max Wind Speed 6 mph    
Max Gust Speed -    
Visibility 6.6 miles    
Events Fog    
Averages and records for this station are not official NWS values.
T = Trace of Precipitation, MM = Missing Value Source: Averaged Metar Reports

Daily Weather History Graph

Daily Weather History Graph

Search for Another Location

Airport:

Trip Planner

Search our weather history database for the weather conditions in past years. The results will help you decide how hot, cold, wet, or windy it might be!

Date:

Astronomy

Oct. 25, 2013 Rise Set
Actual Time 7:49 AM PDT 6:04 PM PDT
Civil Twilight 7:17 AM PDT 6:37 PM PDT
Nautical Twilight 6:40 AM PDT 7:14 PM PDT
Astronomical Twilight 6:04 AM PDT 7:50 PM PDT
Moon 11:23 PM PDT (10/25) 1:41 PM PDT (10/25)
Length of Visible Light 11h 19m
Length of Day
10h 15m
Waning Gibbous, 61% of the Moon is Illuminated
Oct 25
Waning Gibbous
Oct 26
Last Quarter
Nov 3
New
Nov 9
First Quarter
Nov 17
Full

Hourly Weather History & Observations

Time (PDT) Temp. Windchill Dew Point Humidity Pressure Visibility Wind Dir Wind Speed Gust Speed Precip Events Conditions
12:00 AM 44.6 °F - 44.6 °F 100% 30.12 in 0.1 mi Calm Calm - N/A Fog Fog
1:00 AM 44.6 °F - 44.6 °F 100% 30.14 in 0.2 mi Calm Calm - N/A Fog Fog
2:00 AM 44.6 °F 42.2 °F 44.6 °F 100% 30.16 in 0.2 mi SW 4.6 mph - N/A Fog Fog
2:16 AM 46.4 °F - 46.4 °F 100% 30.16 in 0.5 mi Calm Calm - N/A Fog Light Drizzle
3:00 AM 46.4 °F - 46.4 °F 100% 30.16 in 0.5 mi Calm Calm - N/A Fog Fog
4:00 AM 46.4 °F - 46.4 °F 100% 30.17 in 0.4 mi West 2.3 mph - N/A Fog Fog
5:00 AM 46 °F - 46 °F 100% 30.18 in 0 mi WSW 3.5 mph - - Fog Heavy Fog
5:00 AM 46.4 °F 45.2 °F 46.4 °F 100% 30.17 in 0.5 mi WSW 3.5 mph - N/A Fog Fog
6:00 AM 46.4 °F 45.2 °F 46.4 °F 100% 30.18 in 0.5 mi WSW 3.5 mph - N/A Fog Fog
7:00 AM 46.4 °F 44.3 °F 46.4 °F 100% 30.20 in 0.5 mi WSW 4.6 mph - N/A Fog Light Drizzle
7:30 AM 46.4 °F 43.5 °F 46.4 °F 100% 30.20 in 0.6 mi West 5.8 mph - N/A   Overcast
7:51 AM 46.4 °F 45.2 °F 46.4 °F 100% 30.21 in 1.0 mi NW 3.5 mph - N/A   Overcast
8:00 AM 46.4 °F 45.2 °F 46.4 °F 100% 30.22 in 1.0 mi NW 3.5 mph - N/A   Overcast
8:29 AM 48.2 °F - 48.2 °F 100% 30.22 in 2.0 mi North 3.5 mph - N/A   Overcast
9:00 AM 48.2 °F - 48.2 °F 100% 30.23 in 2.0 mi NE 2.3 mph - N/A   Overcast
9:31 AM 48.2 °F - 48.2 °F 100% 30.24 in 1.0 mi Calm Calm - N/A   Overcast
10:00 AM 48.2 °F - 48.2 °F 100% 30.25 in 1.0 mi West 3.5 mph - N/A   Overcast
10:20 AM 48.2 °F - 48.2 °F 100% 30.26 in 0.5 mi WSW 4.6 mph - N/A Fog Fog
10:35 AM 48.2 °F - 48.2 °F 100% 30.26 in 0.2 mi WSW 2.3 mph - N/A Fog Fog
11:00 AM 48 °F - 48 °F 100% 30.27 in 0 mi West 2.3 mph - - Fog Heavy Fog
11:00 AM 48.2 °F - 48.2 °F 100% 30.27 in 0.5 mi WSW 2.3 mph - N/A Fog Fog
11:20 AM 48.2 °F - 48.2 °F 100% 30.27 in 0.6 mi NW 3.5 mph - N/A   Overcast
12:00 PM 50.0 °F - 50.0 °F 100% 30.28 in 2.0 mi NW 2.3 mph - N/A   Overcast
12:35 PM 50.0 °F - 48.2 °F 94% 30.28 in 3.0 mi Calm Calm - N/A   Overcast
1:00 PM 50.0 °F - 48.2 °F 94% 30.28 in 4.0 mi Calm Calm - N/A   Overcast
2:00 PM 50.0 °F - 50.0 °F 100% 30.28 in 5.0 mi East 2.3 mph - N/A   Overcast
3:00 PM 50.0 °F - 48.2 °F 94% 30.28 in 10.0 mi ESE 5.8 mph - N/A   Overcast
3:19 PM 50.0 °F - 48.2 °F 94% 30.28 in 15.0 mi East 4.6 mph - N/A   Mostly Cloudy
4:00 PM 50.0 °F - 48.2 °F 94% 30.28 in 20.0 mi ESE 5.8 mph - N/A   Overcast
5:00 PM 50 °F - 48 °F 92% 30.30 in 19 mi ESE 2.3 mph - -   Partly Cloudy
5:00 PM 50.0 °F - 48.2 °F 94% 30.30 in 20.0 mi ESE 2.3 mph - N/A   Overcast
6:00 PM 50.0 °F - 48.2 °F 94% 30.30 in 20.0 mi East 4.6 mph - N/A   Overcast
7:00 PM 50.0 °F - 48.2 °F 94% 30.31 in 20.0 mi East 2.3 mph - N/A   Overcast
8:00 PM 50.0 °F - 48.2 °F 94% 30.32 in 20.0 mi ENE 2.3 mph - N/A   Overcast
9:00 PM 50.0 °F - 48.2 °F 94% 30.32 in 20.0 mi NE 2.3 mph - N/A   Overcast
10:00 PM 50.0 °F - 48.2 °F 94% 30.33 in 20.0 mi NNE 2.3 mph - N/A   Overcast
11:00 PM 50 °F - 48 °F 92% 30.34 in 19 mi NNE 3.5 mph - -   Overcast
11:00 PM 50.0 °F - 48.2 °F 94% 30.34 in 20.0 mi NNE 2.3 mph - N/A   Overcast